Find Starlink 4489

NORAD ID: 53542 Int'l Des: 2022-101 Owner: SPXS Country: US Constellation: starlink operational
LEOCIRCULAR

現在のビュー

3D地球を読み込み中...

About Starlink 4489

Starlink 4489 (NORAD 53542) is a starlink constellation satellite (v1.5) launched Aug 19, 2022 by SPXS of US. It operates in LEO, CIRCULAR orbit with a mass of 300.00 kg.

Starlink 4489について

説明を読み込み中...

次回通過

Passes for default location (London). Set your location on the main map for personalized predictions.

高度履歴

Loading altitude history...

軌道要素

1 53542U 22101R 26168.83335647 .00064950 00000-0 36291-2 0 9994
2 53542 53.1593 334.4147 0001616 105.1052 182.6908 15.12918294 5833
Epoch: Jun 17, 2026 • Age: 7 hours

現在のステータス

高度 528.5 km
速度 7.60 km/s
衛星直下点 -4.34°S, 162.29°W
打ち上げ日 Aug 19, 2022
運用期間 3.8 years
タイプ internet

技術仕様

分類 Payload
質量 300.00 kg
乾燥質量 290.00 kg
総質量 300.00 kg
長さ 0.20 m
直径 2.80 m
スパン 9.00 m
形状 Box + pan
製造者 SPXS
バスタイプ Starlink
フェーズステータス In Orbit
所有者/国 SPXS/US

Most Searched